AirNav   Pilot Hours Calculator
 
 602 users online  

73TA Reynolds Ranch Airport
Bayview, Texas, USA

GOING TO BAYVIEW?


FAA INFORMATION EFFECTIVE 15 AUGUST 2019

Location

FAA Identifier: 73TA
Lat/Long: 26-09-30.3300N 097-23-19.2800W
26-09.505500N 097-23.321333W
26.1584250,-97.3886889
(estimated)
Elevation: 24 ft. / 7 m (estimated)
From city: 2 miles NNE of BAYVIEW, TX
Time zone: UTC -5 (UTC -6 during Standard Time)
Zip code: 78566

Airport Operations

Airport use: Private use. Permission required prior to landing
Activation date: 01/2017
Control tower: no
ARTCC: HOUSTON CENTER
FSS: SAN ANGELO FLIGHT SERVICE STATION
Attendance: 
Segmented circle: no

Airport Communications

WX ASOS at PIL (2.4 nm E): 118.525 (956-233-5740)
WX ASOS at HRL (15 nm W): 124.85 (956-428-7297)
WX ASOS at BRO (15 nm S): 128.55 (956-546-4540)

Nearby radio navigation aids

VOR radial/distance  VOR name  Freq  Var
BROr348/14.1BROWNSVILLE VORTAC116.3009E
HRLr102/14.8HARLINGEN VOR/DME109.2005E
MAMr010/24.4MATAMOROS VOR/DME114.3007E

 
NDB name  Hdg/Dist  Freq  Var  ID
DEPOO029/12.339303EBR -... .-.

Airport Services

Runway Information

Runway 2/20

Dimensions: 2000 x 50 ft. / 610 x 15 m
Surface: turf
RUNWAY 2  RUNWAY 20
Latitude: 26-09.352167N26-09.658667N
Longitude: 097-23.389000W097-23.253500W
Elevation: 23.0 ft.24.0 ft.
Traffic pattern: leftleft
Runway heading: 022 true202 true

Airport Ownership and Management from official FAA records

Ownership: Privately-owned
Owner: STEPHEN REYNOLDS
27677 LOOP ROAD
BAYVIEW, TX 78566
Phone 956-330-3082
ECHOHOTEL@AOL.COM
Manager: STEPHEN REYNOLDS
27677 LOOP ROAD
BAYVIEW, TX 78566
Phone 956-330-3082

Airport Operational Statistics

Aircraft based on the field: 1
Single engine airplanes: 1
    

Additional Remarks

FOR CD CTC HOUSTON ARTCC AT 281-230-5622.

Instrument Procedures

There are no published instrument procedures at 73TA.

Some nearby airports with instrument procedures:

KPIL - Port Isabel-Cameron County Airport (2 nm E)
KHRL - Valley International Airport (15 nm W)
KBRO - Brownsville/South Padre Island International Airport (15 nm S)
KTXW - Mid Valley Airport (32 nm W)
KEBG - South Texas International Airport at Edinburg (43 nm NW)
 
Loc | Ops | Rwys | IFR | FBO | Links
Com | Nav | Svcs | Stats | Notes
Aerial photo
No photo
 
Airport distance calculator
Flying to Reynolds Ranch Airport? Find the distance to fly.

From to 73TA

Sunrise and sunset
Times for 21-Aug-2019
 Local
(UTC-5)
 Zulu
(UTC)
Morning civil twilight06:4211:42
Sunrise07:0612:06
Sunset20:0001:00
Evening civil twilight20:2301:23

Current date and time
Zulu (UTC)  21-Aug-2019 11:12:31
Local (UTC-5)  21-Aug-2019 06:12:31
 
METAR
KPIL 
3nm E 
211053Z AUTO 13004KT 10SM CLR 27/24 A2995 RMK AO2 SLP142 T02670239
KHRL 
15nm W 
211052Z 11003KT 10SM CLR 24/24 A2995 RMK AO2 SLP142 T02440239
KBRO 
16nm S 
211053Z 10004KT 10SM CLR 27/26 A2995 RMK AO2 SLP141 T02670256
TAF
KHRL 
15nm W 
210528Z 2106/2206 12005KT P6SM SCT040 FM211600 13012KT P6SM FEW030 SCT040 PROB30 2116/2119 -SHRA SCT030 BKN040 FM220200 11007KT P6SM SKC
KBRO 
16nm S 
210528Z 2106/2206 12005KT P6SM SCT040 FM211600 13012KT P6SM FEW030 SCT040 PROB30 2116/2119 -SHRA SCT030 BKN040 FM220100 11005KT P6SM SKC
NOTAMs
Click for the latest NOTAMs
NOTAMs are issued by the DoD/FAA and will open in a separate window not controlled by AirNav.

 

 
 

Would you like to see your business listed on this page?

 If your business provides an interesting product or service to pilots, flight crews, aircraft, or users of the Reynolds Ranch Airport, you should consider listing it here.  To start the listing process, click on the button below
 
Add a business
 

Other Pages about Reynolds Ranch Airport

Update a link
 
Copyright © AirNav, LLC. All rights reserved. Privacy Policy  Contact